Weather History for KVWU - January, 2013

Change the Weather History Date:

Friday, January 4, 2013

  Actual Average (KBDE) Record (KBDE)
Temperature  
Mean Temperature 13 °F -  
Max Temperature 26 °F 12 °F 43 °F (2007)
Min Temperature 0 °F -8 °F -40 °F (1968)
Degree Days  
Heating Degree Days 52    
Moisture  
Dew Point 11 °F    
Average Humidity 84    
Maximum Humidity 93    
Minimum Humidity 74    
Precipitation  
Precipitation 0.00 in - - ()
Sea Level Pressure  
Sea Level Pressure 29.97 in    
Wind  
Wind Speed 8 mph (SW)    
Max Wind Speed 13 mph    
Max Gust Speed 17 mph    
Visibility 10 miles    
Events      
Averages and records for this station are not official NWS values.
T = Trace of Precipitation, MM = Missing Value Source: NWS Daily Summary

Daily Weather History Graph

Daily Weather History Graph

Search for Another Location

Airport or City:

Trip Planner

Search our weather history database for the weather conditions in past years. The results will help you decide how hot, cold, wet, or windy it might be!

Date:

Astronomy

Jan. 04, 2013 Rise Set
Actual Time 8:08 AM CST 4:38 PM CST
Civil Twilight 7:32 AM CST 5:14 PM CST
Nautical Twilight 6:52 AM CST 5:54 PM CST
Astronomical Twilight 6:14 AM CST 6:31 PM CST
Moon No Moon Rise 11:15 AM CST (1/4)
Length of Visible Light 9h 42m
Length of Day
8h 30m
Waning Gibbous, 55% of the Moon is Illuminated
Jan 4
Waning Gibbous
Jan 4
Last Quarter
Jan 11
New
Jan 18
First Quarter
Jan 26
Full

Hourly Weather History & Observations

Time (CST) Temp. Windchill Dew Point Humidity Pressure Visibility Wind Dir Wind Speed Gust Speed Precip Events Conditions
12:05 AM 17.6 °F 5.0 °F 14.0 °F 86% 29.85 in 10.0 mi SW 11.5 mph 17.3 mph N/A   Clear
12:26 AM 17.6 °F 5.0 °F 14.0 °F 86% 29.85 in 10.0 mi SW 11.5 mph 17.3 mph N/A   Clear
12:45 AM 17.6 °F 4.3 °F 12.2 °F 79% 29.85 in 10.0 mi SW 12.7 mph - N/A   Clear
1:05 AM 15.8 °F 2.7 °F 12.2 °F 86% 29.85 in 10.0 mi SW 11.5 mph - N/A   Clear
1:26 AM 15.8 °F 2.1 °F 12.2 °F 86% 29.85 in 10.0 mi SW 12.7 mph - N/A   Clear
1:45 AM 17.6 °F 4.3 °F 12.2 °F 79% 29.85 in 10.0 mi SW 12.7 mph 17.3 mph N/A   Clear
2:05 AM 15.8 °F 3.4 °F 12.2 °F 86% 29.85 in 10.0 mi SW 10.4 mph - N/A   Clear
2:26 AM 15.8 °F 2.7 °F 12.2 °F 86% 29.85 in 10.0 mi SW 11.5 mph - N/A   Clear
2:45 AM 15.8 °F 2.7 °F 12.2 °F 86% 29.85 in 10.0 mi SW 11.5 mph - N/A   Clear
3:05 AM 15.8 °F 3.4 °F 10.4 °F 79% 29.86 in 10.0 mi SW 10.4 mph - N/A   Clear
3:26 AM 15.8 °F 4.2 °F 10.4 °F 79% 29.86 in 10.0 mi SW 9.2 mph - N/A   Clear
3:45 AM 14.0 °F 2.0 °F 10.4 °F 86% 29.87 in 10.0 mi SW 9.2 mph - N/A   Clear
4:05 AM 15.8 °F 4.2 °F 10.4 °F 79% 29.87 in 10.0 mi SW 9.2 mph - N/A   Clear
4:26 AM 14.0 °F 2.0 °F 10.4 °F 86% 29.88 in 10.0 mi SW 9.2 mph - N/A   Clear
4:45 AM 14.0 °F 1.2 °F 10.4 °F 86% 29.89 in 10.0 mi SW 10.4 mph - N/A   Clear
5:05 AM 14.0 °F 1.2 °F 10.4 °F 86% 29.89 in 10.0 mi SW 10.4 mph - N/A   Clear
5:26 AM 12.2 °F -0.2 °F 10.4 °F 92% 29.89 in 10.0 mi SW 9.2 mph - N/A   Clear
6:05 AM 12.2 °F -1.8 °F 10.4 °F 92% 29.90 in 10.0 mi SW 11.5 mph - N/A   Clear
6:25 AM 12.2 °F -1.0 °F 10.4 °F 92% 29.90 in 10.0 mi SW 10.4 mph - N/A   Clear
7:05 AM 12.2 °F -1.0 °F 8.6 °F 85% 29.91 in 10.0 mi SW 10.4 mph - N/A   Clear
7:25 AM 10.4 °F -0.4 °F 8.6 °F 92% 29.92 in 10.0 mi SW 6.9 mph - N/A   Clear
7:45 AM 10.4 °F -1.5 °F 8.6 °F 92% 29.92 in 10.0 mi SW 8.1 mph - N/A   Clear
8:06 AM 10.4 °F -1.5 °F 8.6 °F 92% 29.92 in 10.0 mi SW 8.1 mph - N/A   Clear
8:25 AM 12.2 °F 0.7 °F 8.6 °F 85% 29.92 in 10.0 mi SW 8.1 mph - N/A   Clear
8:45 AM 12.2 °F -1.0 °F 10.4 °F 92% 29.93 in 10.0 mi SW 10.4 mph - N/A   Clear
9:05 AM 14.0 °F 0.5 °F 10.4 °F 86% 29.94 in 10.0 mi SW 11.5 mph - N/A   Clear
9:25 AM 14.0 °F 2.9 °F 10.4 °F 86% 29.96 in 10.0 mi SW 8.1 mph - N/A   Clear
9:45 AM 15.8 °F 7.2 °F 10.4 °F 79% 29.97 in 10.0 mi SW 5.8 mph - N/A   Clear
10:05 AM 15.8 °F 5.1 °F 10.4 °F 79% 29.98 in 10.0 mi SW 8.1 mph - N/A   Clear
10:45 AM 17.6 °F 7.3 °F 12.2 °F 79% 29.99 in 10.0 mi SW 8.1 mph - N/A   Clear
11:05 AM 19.4 °F 9.5 °F 14.0 °F 80% 30.00 in 10.0 mi SW 8.1 mph - N/A   Clear
11:25 AM 21.2 °F 13.6 °F 15.8 °F 80% 30.00 in 10.0 mi SW 5.8 mph - N/A   Clear
11:45 AM 24.8 °F 17.9 °F 17.6 °F 74% 29.99 in 10.0 mi SW 5.8 mph - N/A   Clear
12:06 PM 24.8 °F 16.1 °F 17.6 °F 74% 30.00 in 10.0 mi SW 8.1 mph - N/A   Clear
12:25 PM 24.8 °F 16.9 °F 17.6 °F 74% 29.99 in 10.0 mi SW 6.9 mph - N/A   Clear
12:45 PM 26.6 °F 21.2 °F 19.4 °F 74% 29.99 in 10.0 mi WSW 4.6 mph - N/A   Clear
1:06 PM 26.6 °F 21.2 °F 19.4 °F 74% 29.98 in 10.0 mi WSW 4.6 mph - N/A   Clear
1:25 PM 26.6 °F 18.2 °F 19.4 °F 74% 30.00 in 10.0 mi SW 8.1 mph - N/A   Clear
1:45 PM 24.8 °F 16.1 °F 19.4 °F 80% 30.00 in 10.0 mi SW 8.1 mph - N/A   Clear
2:06 PM 26.6 °F 18.2 °F 19.4 °F 74% 30.00 in 10.0 mi WSW 8.1 mph - N/A   Clear
2:25 PM 26.6 °F 19.1 °F 19.4 °F 74% 30.01 in 10.0 mi WSW 6.9 mph - N/A   Clear
2:45 PM 26.6 °F 19.1 °F 19.4 °F 74% 30.01 in 10.0 mi WSW 6.9 mph - N/A   Clear
3:05 PM 26.6 °F 19.1 °F 19.4 °F 74% 30.01 in 10.0 mi SW 6.9 mph - N/A   Clear
3:25 PM 26.6 °F 21.2 °F 19.4 °F 74% 30.02 in 10.0 mi SW 4.6 mph - N/A   Clear
3:46 PM 24.8 °F 19.1 °F 17.6 °F 74% 30.03 in 10.0 mi SW 4.6 mph - N/A   Clear
4:05 PM 23.0 °F 15.8 °F 17.6 °F 80% 30.04 in 10.0 mi SW 5.8 mph - N/A   Clear
4:25 PM 23.0 °F 18.4 °F 17.6 °F 80% 30.03 in 10.0 mi SSW 3.5 mph - N/A   Clear
4:46 PM 19.4 °F - 14.0 °F 80% 30.04 in 10.0 mi Calm Calm - N/A   Clear
5:05 PM 19.4 °F - 15.8 °F 86% 30.04 in 10.0 mi Calm Calm - N/A   Clear
5:25 PM 17.6 °F - 15.8 °F 93% 30.04 in 10.0 mi Calm Calm - N/A   Clear
5:46 PM 15.8 °F - 12.2 °F 86% 30.05 in 10.0 mi Calm Calm - N/A   Clear
6:05 PM 14.0 °F - 10.4 °F 86% 30.06 in 10.0 mi Calm Calm - N/A   Clear
6:25 PM 12.2 °F - 10.4 °F 92% 30.06 in 10.0 mi Calm Calm - N/A   Clear
6:46 PM 10.4 °F - 8.6 °F 92% 30.06 in 10.0 mi Calm Calm - N/A   Clear
7:05 PM 8.6 °F - 6.8 °F 92% 30.06 in 10.0 mi Calm Calm - N/A   Clear
7:25 PM 8.6 °F - 6.8 °F 92% 30.06 in 10.0 mi Calm Calm - N/A   Clear
7:46 PM 6.8 °F - 5.0 °F 92% 30.06 in 10.0 mi Calm Calm - N/A   Clear
8:05 PM 6.8 °F - 3.2 °F 85% 30.06 in 10.0 mi Calm Calm - N/A   Clear
8:25 PM 5.0 °F - 3.2 °F 92% 30.06 in 10.0 mi Calm Calm - N/A   Clear
8:46 PM 5.0 °F - 1.4 °F 85% 30.04 in 10.0 mi Calm Calm - N/A   Clear
9:05 PM 3.2 °F - 1.4 °F 92% 30.04 in 10.0 mi Calm Calm - N/A   Clear
9:25 PM 1.4 °F - -0.4 °F 92% 30.03 in 10.0 mi Calm Calm - N/A   Clear
9:46 PM 3.2 °F - -0.4 °F 85% 30.04 in 10.0 mi Calm Calm - N/A   Clear
10:05 PM 1.4 °F - -2.2 °F 85% 30.05 in 10.0 mi Calm Calm - N/A   Clear
10:25 PM 1.4 °F - -0.4 °F 92% 30.05 in 10.0 mi Calm Calm - N/A   Clear
10:46 PM -0.4 °F - -2.2 °F 92% 30.05 in 10.0 mi Calm Calm - N/A   Clear
11:05 PM -0.4 °F - -2.2 °F 92% 30.05 in 10.0 mi Calm Calm - N/A   Clear
11:25 PM -0.4 °F - -2.2 °F 92% 30.04 in 10.0 mi Calm Calm - N/A   Clear
11:46 PM -0.4 °F - -4.0 °F 85% 30.04 in 10.0 mi Calm Calm - N/A   Clear